Stations météo

réclame
Mon MeteoGroup
Andernach, Allemagne (10520): Température de l'air & dewpoint: 18.04.2018 10:00:00 - 24.04.2018 10:00:00 (CEST)Andernach, Allemagne (10520): Température de l'air 5cm & Température de l'air -5cm: 18.04.2018 10:00:00 - 24.04.2018 10:00:00 (CEST)Andernach, Allemagne (10520): Température de l'air -20cm & Température de l'air -100cm: 18.04.2018 10:00:00 - 24.04.2018 10:00:00 (CEST)Andernach, Allemagne (10520): Vitesse du vent & gusts: 18.04.2018 10:00:00 - 24.04.2018 10:00:00 (CEST)Andernach, Allemagne (10520): Direction du vent: 18.04.2018 10:00:00 - 24.04.2018 10:00:00 (CEST)Andernach, Allemagne (10520): reduced air pressure: 18.04.2018 10:00:00 - 24.04.2018 10:00:00 (CEST)Andernach, Allemagne (10520): visibility: 18.04.2018 10:00:00 - 24.04.2018 10:00:00 (CEST)Andernach, Allemagne (10520): Ensoleillement: 18.04.2018 10:00:00 - 24.04.2018 10:00:00 (CEST)Andernach, Allemagne (10520): Quantités de précipitations: 18.04.2018 10:00:00 - 24.04.2018 10:00:00 (CEST)
Date & Time tt [°C] td [°C] tt 5cm [°C] tt -5cm [°C] tt -20cm [°C] tt -100cm [°C] ff [km/h] ff [knt] fx [km/h] fx [knt] dd ppp [hPa] vv [km] sd [min] rr [mm]
24.04.2018 10:00:00 13,0 6,6 15,7 14,3 15,2 11,5 7 4 18 10 SW 1018,8 50 54 0,0
24.04.2018 09:00:00 11,6 7,4 12,5 12,2 15,4 11,5 7 4 14 8 SW 1018,7 34 32 0,0
24.04.2018 08:00:00 9,2 6,8 8,5 10,8 15,8 11,5 3 1 6 4 NNE 1018,7 36 38 0,0
24.04.2018 07:00:00 6,5 5,3 4,0 10,5 16,2 11,5 3 1 7 4 SE 1018,3 32 4 0,0
24.04.2018 06:00:00 5,8 5,1 1,5 11,2 16,6 11,4 2 1 9 5 E 1018,3 29 0 0,0
24.04.2018 05:00:00 7,3 6,0 2,7 11,8 17,1 11,4 5 3 11 6 SSW 1018,7 44 0 0,0
24.04.2018 04:00:00 7,9 6,3 3,4 12,6 17,5 11,4 4 2 6 4 SW 1018,6 49 0 0,0
24.04.2018 03:00:00 8,4 6,6 4,8 13,4 18,0 11,4 5 3 7 4 SW 1018,5 48 0 0,0
24.04.2018 02:00:00 9,5 6,8 4,8 14,3 18,4 11,4 3 1 8 5 SW 1018,6 46 0 0,0
24.04.2018 01:00:00 10,6 7,3 6,3 15,3 18,9 11,4 3 2 8 4 WSW 1018,0 42 0 0,0
24.04.2018 00:00:00 11,6 7,4 6,7 16,4 19,3 11,3 2 1 11 6 SSE 1017,8 48 0 0,0
23.04.2018 23:00:00 11,7 7,6 6,8 17,7 19,7 11,3 3 2 9 5 S 1017,5 39 0 0,0
23.04.2018 22:00:00 14,6 7,5 9,9 19,1 20,0 11,3 5 3 24 13 SSW 1016,8 54 0 0,0
23.04.2018 21:00:00 17,2 7,1 14,4 20,7 20,2 11,3 9 5 27 14 NNW 1016,1 68 0 0,0
23.04.2018 20:00:00 18,5 7,2 16,7 22,6 20,3 11,3 17 9 32 18 NNW 1015,6 59 47 0,0
23.04.2018 19:00:00 19,9 7,0 19,8 24,4 20,2 11,2 19 10 33 18 NNW 1015,1 70 28 0,0
23.04.2018 18:00:00 20,9 6,7 21,3 26,1 19,9 11,2 16 8 29 15 NNW 1014,7 67 50 0,0
23.04.2018 17:00:00 21,4 6,8 24,2 25,8 19,6 11,2 13 7 33 18 WNW 1014,3 63 37 0,0
23.04.2018 16:00:00 20,9 8,7 24,5 26,1 19,2 11,2 21 12 33 18 NW 1014,7 50 44 0,0
23.04.2018 15:00:00 20,3 10,2 23,3 26,2 18,7 11,2 19 10 32 17 NNW 1015,1 36 55 0,0
23.04.2018 14:00:00 20,1 11,3 24,8 25,0 18,2 11,2 19 10 38 20 NNW 1015,2 47 24 0,0
23.04.2018 13:00:00 22,0 10,1 29,5 25,1 17,8 11,1 15 8 29 16 W 1014,7 55 53 0,0
23.04.2018 12:00:00 20,6 9,5 24,2 22,3 17,5 11,1 16 9 31 17 W 1014,7 67 44 0,0
23.04.2018 11:00:00 19,4 10,2 21,6 20,1 17,4 11,1 5 3 17 9 NNW 1014,8 70 6 0,0
23.04.2018 10:00:00 18,4 10,7 21,0 19,2 17,4 11,1 8 4 15 8 NNW 1014,8 47 36 0,0
23.04.2018 09:00:00 18,0 12,1 18,6 17,3 17,5 11,1 2 1 6 3 WSW 1014,4 34 4 0,0
23.04.2018 08:00:00 16,8 13,3 15,7 16,7 17,7 11,1 2 1 8 4 SSW 1013,9 34 2 0,0
23.04.2018 07:00:00 16,0 13,3 13,8 16,6 17,9 11,1 3 1 7 4 E 1013,5 32 0 0,0
23.04.2018 06:00:00 15,9 13,8 14,2 16,9 18,1 11,0 0 0 8 4 N 1013,3 27 0 0,0
23.04.2018 05:00:00 16,3 13,6 14,7 17,1 18,4 11,0 6 3 10 5 S 1013,2 29 0 0,2
23.04.2018 04:00:00 16,4 13,0 14,6 17,3 18,7 11,0 4 2 8 4 NNE 1012,9 31 0 0,0
23.04.2018 03:00:00 16,4 12,9 14,6 17,4 19,0 11,0 5 3 8 4 ESE 1012,4 34 0 0,0
23.04.2018 02:00:00 16,7 12,3 14,3 17,5 19,4 11,0 2 1 10 5 ENE 1012,3 38 0 0,0
23.04.2018 01:00:00 14,8 11,9 10,9 18,2 19,8 11,0 5 3 7 4 E 1012,4 33 0 0,0
23.04.2018 00:00:00 15,8 11,8 11,1 19,3 20,1 10,9 3 2 7 4 SE 1012,5 38 0 0,0
22.04.2018 23:00:00 18,1 11,6 13,0 20,6 20,5 10,9 3 1 8 5 SSW 1012,1 48 0 0,0
22.04.2018 22:00:00 20,7 11,2 16,3 21,9 20,7 10,9 6 3 17 9 SW 1011,6 56 0 0,0
22.04.2018 21:00:00 22,7 10,3 18,8 23,4 20,8 10,9 8 5 20 11 SW 1011,0 57 0 0,0
22.04.2018 20:00:00 24,7 10,0 22,6 25,0 20,9 10,9 12 6 23 12 WSW 1010,5 70 0 0,0
22.04.2018 19:00:00 25,7 10,4 24,5 26,5 20,7 10,9 15 8 34 19 WSW 1010,0 70 6 0,0
22.04.2018 18:00:00 26,9 11,2 26,9 28,1 20,3 10,8 20 11 39 21 SW 1009,8 50 54 0,0
22.04.2018 17:00:00 27,7 8,9 28,4 29,2 19,8 10,8 21 12 41 22 SW 1009,8 47 53 0,0
22.04.2018 16:00:00 28,8 8,5 31,4 29,6 19,1 10,8 20 11 35 19 SSW 1010,1 40 60 0,0
22.04.2018 15:00:00 27,9 10,2 32,2 28,9 18,4 10,8 11 6 26 14 SW 1010,8 51 34 0,0
22.04.2018 14:00:00 27,0 11,2 30,2 28,4 17,6 10,8 13 7 23 12 SSW 1011,7 35 59 0,0
22.04.2018 13:00:00 24,7 14,1 29,8 26,5 16,9 10,8 4 2 10 6 E 1012,6 26 60 0,0
22.04.2018 12:00:00 22,1 13,2 26,7 23,9 16,4 10,7 3 1 14 7 NE 1013,7 18 56 0,0
22.04.2018 11:00:00 19,9 12,1 24,4 20,9 16,2 10,7 3 2 10 5 SE 1014,4 15 60 0,0
22.04.2018 10:00:00 18,0 12,2 21,2 17,8 16,2 10,7 4 2 7 4 ENE 1014,6 13 60 0,0
22.04.2018 09:00:00 16,1 11,8 17,1 15,1 16,4 10,7 0 0 4 2 N 1015,3 10 60 0,0
22.04.2018 08:00:00 12,2 10,1 12,4 13,5 16,7 10,7 4 2 6 3 SSW 1015,7 9 43 0,0
22.04.2018 07:00:00 9,4 8,9 7,1 13,4 17,1 10,7 3 1 7 4 SSW 1015,7 4,8 0 0,0
22.04.2018 06:00:00 11,0 9,7 8,5 14,0 17,4 10,7 6 3 8 4 SSW 1015,8 8 0 0,0
22.04.2018 05:00:00 10,9 9,7 7,4 14,7 17,8 10,6 3 2 8 4 SSW 1016,1 7 0 0,0
22.04.2018 04:00:00 12,5 10,3 9,1 15,4 18,2 10,6 6 3 8 5 SW 1016,2 11 0 0,0
22.04.2018 03:00:00 12,8 10,5 10,0 16,1 18,6 10,6 6 3 8 5 SSW 1016,5 11 0 0,0
22.04.2018 02:00:00 13,6 10,8 10,9 17,0 19,0 10,6 6 3 8 4 SSW 1017,1 14 0 0,0
22.04.2018 01:00:00 14,3 11,2 10,8 17,8 19,5 10,6 4 2 9 5 SW 1017,6 16 0 0,0
22.04.2018 00:00:00 15,2 11,4 12,5 18,8 19,9 10,6 6 3 8 5 SSW 1017,6 18 0 0,0
21.04.2018 23:00:00 16,1 11,7 12,1 20,0 20,2 10,5 2 1 7 4 SW 1017,6 21 0 0,0
21.04.2018 22:00:00 18,3 11,5 14,4 21,6 20,5 10,5 4 2 11 6 NNW 1017,4 27 0 0,0
21.04.2018 21:00:00 21,8 9,8 16,8 23,5 20,7 10,5 5 3 10 5 NNW 1017,3 30 0 0,0
21.04.2018 20:00:00 24,1 9,1 21,2 25,4 20,7 10,5 8 4 17 9 NNW 1017,0 32 49 0,0
21.04.2018 19:00:00 25,0 8,9 23,7 27,2 20,4 10,5 10 6 20 11 NNW 1017,3 32 60 0,0
21.04.2018 18:00:00 25,6 9,3 25,7 28,7 20,0 10,5 10 5 21 11 NNW 1017,6 32 60 0,0
21.04.2018 17:00:00 25,8 8,4 28,1 29,7 19,4 10,4 11 6 25 13 NW 1018,1 33 60 0,0
21.04.2018 16:00:00 25,8 9,1 30,2 30,3 18,6 10,4 11 6 21 11 NNW 1018,7 32 60 0,0
21.04.2018 15:00:00 25,5 7,6 29,8 29,8 17,8 10,4 4 2 15 8 N 1019,3 31 60 0,0
21.04.2018 14:00:00 25,5 10,2 31,7 28,2 16,9 10,4 3 2 18 10 SW 1019,9 31 60 0,0
21.04.2018 13:00:00 24,0 9,0 31,1 25,7 16,3 10,4 7 4 13 7 NW 1020,5 23 60 0,0
21.04.2018 12:00:00 21,9 12,1 28,4 22,6 15,9 10,4 8 5 14 8 NNW 1021,2 13 60 0,0
21.04.2018 11:00:00 20,0 11,8 25,0 19,4 15,7 10,4 10 5 22 12 NNW 1021,4 10 60 0,0
21.04.2018 10:00:00 17,8 10,7 21,1 17,1 15,7 10,3 10 6 21 12 NNW 1021,4 11 60 0,0
21.04.2018 09:00:00 15,8 11,3 17,3 14,9 15,9 10,3 4 2 7 4 E 1021,8 17 60 0,0
21.04.2018 08:00:00 13,7 11,4 12,9 13,4 16,2 10,3 0 0 5 3 N 1021,7 17 38 0,0
21.04.2018 07:00:00 10,6 9,7 7,7 13,3 16,6 10,3 3 2 5 3 S 1021,3 8 0 0,0
21.04.2018 06:00:00 11,2 10,4 7,3 13,9 16,9 10,3 2 1 7 4 NNW 1020,8 15 0 0,0
21.04.2018 05:00:00 12,6 10,3 8,6 14,6 17,3 10,3 4 2 6 3 ESE 1021,0 20 0 0,0
21.04.2018 04:00:00 11,9 10,5 8,1 15,3 17,7 10,3 2 1 6 3 S 1020,9 13 0 0,0
21.04.2018 03:00:00 14,0 10,4 10,5 16,1 18,1 10,3 4 2 17 9 ENE 1020,8 26 0 0,0
21.04.2018 02:00:00 16,7 11,5 14,2 16,8 18,5 10,2 6 3 16 9 N 1021,1 28 0 0,0
21.04.2018 01:00:00 14,4 10,6 11,5 17,6 18,9 10,2 4 2 12 6 SE 1021,1 24 0 0,0
21.04.2018 00:00:00 17,1 11,0 11,9 18,6 19,3 10,2 4 2 16 8 NNW 1020,8 32 0 0,0
20.04.2018 23:00:00 16,4 11,4 12,5 19,8 19,7 10,2 3 1 7 4 W 1020,8 28 0 0,0
20.04.2018 22:00:00 18,6 11,7 14,2 21,4 20,0 10,2 6 3 7 4 SSW 1020,7 36 0 0,0
20.04.2018 21:00:00 21,7 10,4 15,1 23,4 20,1 10,2 4 2 13 7 W 1020,3 50 3 0,0
20.04.2018 20:00:00 26,0 7,6 20,9 25,6 20,0 10,1 9 5 18 10 NW 1019,8 53 59 0,0
20.04.2018 19:00:00 27,5 6,6 25,4 27,7 19,7 10,1 10 6 21 11 NNW 1019,9 58 60 0,0
20.04.2018 18:00:00 27,8 6,8 27,5 29,4 19,1 10,1 4 2 16 9 NE 1020,2 66 60 0,0
20.04.2018 17:00:00 28,0 5,6 30,1 30,1 18,3 10,1 5 3 15 8 NW 1020,7 57 60 0,0
20.04.2018 16:00:00 27,7 6,7 31,0 30,1 17,4 10,1 5 3 12 6 ESE 1021,2 70 60 0,0
20.04.2018 15:00:00 26,8 5,2 30,1 29,2 16,5 10,1 7 4 13 7 ESE 1022,1 66 60 0,0
20.04.2018 14:00:00 25,7 5,2 29,9 27,5 15,6 10,1 3 1 9 5 ENE 1022,7 59 60 0,0
20.04.2018 13:00:00 24,1 6,5 28,8 24,9 14,9 10,0 4 2 6 4 E 1023,5 42 60 0,0
20.04.2018 12:00:00 21,4 9,0 25,9 21,6 14,5 10,0 3 2 8 4 ESE 1024,0 34 60 0,0
20.04.2018 11:00:00 18,5 9,2 22,2 18,3 14,2 10,0 3 1 5 3 E 1024,5 31 60 0,0
20.04.2018 10:00:00 15,1 7,8 19,7 15,2 14,2 10,0 2 1 5 3 E 1024,7 27 60 0,0
20.04.2018 09:00:00 13,5 8,5 14,5 12,5 14,5 10,0 0 0 5 3 N 1025,2 26 60 0,0
20.04.2018 08:00:00 9,7 7,3 9,6 10,8 14,8 10,0 4 2 7 4 SSW 1025,3 25 52 0,0
20.04.2018 07:00:00 7,6 6,5 3,7 10,7 15,2 10,0 5 3 7 4 SSW 1025,3 25 0 0,0
20.04.2018 06:00:00 8,0 6,6 4,7 11,4 15,7 10,0 6 3 7 4 SSW 1025,2 29 0 0,0
20.04.2018 05:00:00 8,5 7,2 3,4 12,1 16,1 10,0 5 3 7 4 SSW 1025,3 29 0 0,0
20.04.2018 04:00:00 9,4 7,6 5,6 12,9 16,6 9,9 5 3 7 4 SSW 1025,4 32 0 0,0
20.04.2018 03:00:00 9,9 8,1 6,0 13,8 17,0 9,9 6 4 8 5 SSW 1025,5 33 0 0,0
20.04.2018 02:00:00 10,1 8,2 5,4 14,8 17,5 9,9 4 2 8 4 SSW 1025,6 33 0 0,0
20.04.2018 01:00:00 12,2 9,0 7,8 15,8 17,9 9,9 6 4 9 5 SSW 1025,5 39 0 0,0
20.04.2018 00:00:00 13,6 9,2 8,9 17,0 18,4 9,9 7 4 9 5 SSW 1025,5 47 0 0,0
19.04.2018 23:00:00 14,8 9,8 8,5 18,4 18,8 9,9 5 3 9 5 SSW 1025,5 52 0 0,0
19.04.2018 22:00:00 17,8 10,2 10,5 20,1 19,0 9,9 4 2 32 17 W 1025,4 54 0 0,0
19.04.2018 21:00:00 20,1 8,7 12,2 22,3 19,1 9,9 1 0 9 5 NNE 1024,7 70 18 0,0
19.04.2018 20:00:00 24,8 6,7 19,0 24,6 19,0 9,8 6 3 16 9 S 1024,2 70 60 0,0
19.04.2018 19:00:00 26,9 6,0 25,0 26,4 18,7 9,8 10 6 18 10 SSE 1024,2 70 60 0,0
19.04.2018 18:00:00 27,6 6,5 27,7 27,6 18,2 9,8 12 6 21 12 S 1024,5 63 60 0,0
19.04.2018 17:00:00 27,7 7,5 29,2 28,4 17,5 9,8 13 7 21 11 SE 1024,8 57 60 0,0
19.04.2018 16:00:00 27,3 4,5 29,6 28,6 16,7 9,8 13 7 25 13 SE 1025,5 58 60 0,0
19.04.2018 15:00:00 26,9 4,9 30,5 28,0 15,9 9,8 9 5 24 13 SSE 1026,2 43 60 0,0
19.04.2018 14:00:00 25,7 9,3 29,9 26,3 15,1 9,8 12 7 21 11 E 1026,7 51 60 0,0
19.04.2018 13:00:00 24,1 8,0 27,9 24,2 14,3 9,8 14 8 21 11 ESE 1027,4 47 60 0,0
19.04.2018 12:00:00 22,8 9,2 26,6 21,5 13,8 9,7 9 5 17 9 ESE 1028,2 49 60 0,0
19.04.2018 11:00:00 20,5 9,6 24,2 18,4 13,5 9,7 3 1 8 4 E 1028,5 39 60 0,0
19.04.2018 10:00:00 18,0 9,9 20,7 15,1 13,5 9,7 3 1 10 5 N 1028,7 30 60 0,0
19.04.2018 09:00:00 14,4 9,7 15,3 12,3 13,7 9,7 0 0 7 4 N 1029,1 20 60 0,0
19.04.2018 08:00:00 9,9 7,6 9,6 10,5 14,0 9,7 5 3 - - SW 1029,4 21 - 0,0
19.04.2018 07:00:00 - - - - - - - - - - - - - - 0,0
19.04.2018 06:00:00 - - - - - - - - - - - - - - 0,0
19.04.2018 05:00:00 - - - - - - - - - - - - - - 0,0
19.04.2018 04:00:00 - - - - - - - - - - - - - - 0,0
19.04.2018 03:00:00 - - - - - - - - - - - - - - 0,0
19.04.2018 02:00:00 - - - - - - - - - - - - - - 0,0
19.04.2018 01:00:00 - - - - - - - - - - - - - - 0,0
19.04.2018 00:00:00 - - - - - - - - - - - - - - 0,0
18.04.2018 23:00:00 - - - - - - - - - - - - - - 0,0
18.04.2018 22:00:00 - - - - - - - - 6 3 - - - 0 0,0
18.04.2018 21:00:00 19,9 7,5 12,1 21,0 18,0 9,6 3 2 10 6 S 1028,5 70 19 0,0
18.04.2018 20:00:00 23,8 5,6 18,4 23,1 17,8 9,6 6 4 19 10 SE 1028,2 70 60 0,0
18.04.2018 19:00:00 25,1 4,3 22,9 24,9 17,5 9,6 14 8 24 13 ESE 1028,5 70 60 0,0
18.04.2018 18:00:00 25,7 4,1 25,5 26,4 17,0 9,6 14 8 24 13 ESE 1028,6 63 60 0,0
18.04.2018 17:00:00 25,8 6,2 27,4 27,4 16,4 9,5 12 7 21 12 SE 1029,0 64 60 0,0
18.04.2018 16:00:00 25,4 6,4 27,9 27,7 15,5 9,5 14 7 22 12 E 1029,6 53 59 0,0
18.04.2018 15:00:00 25,3 8,2 29,1 27,0 14,6 9,5 9 5 21 11 ESE 1030,2 53 60 0,0
18.04.2018 14:00:00 24,4 7,9 29,0 25,5 13,7 9,5 3 2 11 6 NNE 1030,4 56 60 0,0
18.04.2018 13:00:00 22,8 9,2 27,6 23,0 13,0 9,5 3 2 9 5 E 1031,4 41 60 0,0
18.04.2018 12:00:00 19,3 9,2 23,5 19,9 12,5 9,5 4 2 8 4 ENE 1031,7 37 60 0,0
18.04.2018 11:00:00 16,7 9,2 20,0 16,6 12,2 9,5 4 2 8 4 SE 1032,0 35 60 0,0
18.04.2018 10:00:00 13,8 8,0 17,1 13,5 12,2 9,5 3 2 7 4 SSE 1032,3 34 60 0,0

tt = Température de l'air
td = dewpoint
tt 5cm = Température de l'air 5cm
tt -5cm = Température de l'air -5cm
tt -20cm = Température de l'air -20cm
tt -100cm = Température de l'air -100cm
ff = Vitesse du vent
fx = gusts
dd = Direction du vent
ppp = reduced air pressure
vv = visibility
sd = Ensoleillement
rr = Quantités de précipitations

stations d'obs. à proximité